Printer-friendly version

IAU Minor Planet Center

Minor Planet Center

MPEC 2006-S12 : 2006 QJ65

The following Minor Planet Electronic Circular may be linked-to from your own Web pages, but must not otherwise be redistributed electronically.


Read MPEC 2006-S11 Read MPEC 2006-S13


M.P.E.C. 2006-S12                                Issued 2006 Sept. 18, 17:17 UT

     The Minor Planet Electronic Circulars contain information on unusual
         minor planets and routine data on comets.  They are published
   on behalf of Commission 20 of the International Astronomical Union by the
          Minor Planet Center, Smithsonian Astrophysical Observatory,
                          Cambridge, MA 02138, U.S.A.

                  Supported in part by the Brinson Foundation
                  Supported in part by the TABASGO Foundation
             Prepared using the Tamkin Foundation Computer Network

                              MPC@CFA.HARVARD.EDU
          URL http://cfa-www.harvard.edu/iau/mpc.html  ISSN 1523-6714

                                   2006 QJ65

Additional Observations:
     K06Q65J  C2006 09 17.26231 22 49 00.23 -24 45 22.0          17.9 R ES012699
     K06Q65J  C2006 09 17.27598 22 48 59.89 -24 46 53.0                 ES012699
     K06Q65J  C2006 09 17.28965 22 48 59.49 -24 48 23.4                 ES012699
     K06Q65J  C2006 09 17.30334 22 48 59.16 -24 49 54.7                 ES012699
     K06Q65J  C2006 09 17.32517 22 48 58.60 -24 52 19.9          17.7 R ES012699
     K06Q65J  C2006 09 17.32883 22 48 58.58 -24 52 44.0                 ES012699
     K06Q65J  C2006 09 17.33248 22 48 58.48 -24 53 08.2                 ES012699
     K06Q65J  C2006 09 18.02718 22 49 05.06 -26 12 45.4          17.9 R ES012844
     K06Q65J  C2006 09 18.03620 22 49 04.79 -26 13 52.6          18.1 R ES012844
     K06Q65J  C2006 09 18.04987 22 49 04.46 -26 15 31.6          18.7 R ES012844
     K06Q65J  C2006 09 18.05684 22 49 04.30 -26 16 24.8          18.1 R ES012844
     K06Q65J  C2006 09 18.06537 22 49 04.17 -26 17 28.6          18.2 R ES012844
     K06Q65J  C2006 09 18.07446 22 49 03.87 -26 18 36.3          18.1 R ES012844
     K06Q65J  C2006 09 18.17256 22 49 04.66 -26 32 00.8          18.9 R ES012734
     K06Q65J  C2006 09 18.17632 22 49 04.57 -26 32 28.8          17.9 R ES012734
     K06Q65J  C2006 09 18.17953 22 49 04.53 -26 32 52.7          19.3 R ES012734
     K06Q65J  C2006 09 18.22953 22 49 04.59 -26 39 02.7          18.9 R ES012854
     K06Q65J  C2006 09 18.23375 22 49 04.46 -26 39 34.8          19.1 R ES012854
     K06Q65J  C2006 09 18.23881 22 49 04.33 -26 40 12.9          18.9 R ES012854
     K06Q65J 5C2006 09 18.26858 22 49 04.15 -26 43 58.4          18.4 R ES012673
     K06Q65J 5C2006 09 18.27297 22 49 04.07 -26 44 30.8                 ES012673
     K06Q65J 5C2006 09 18.27865 22 49 03.86 -26 45 13.2                 ES012673
     K06Q65J 5C2006 09 18.28362 22 49 03.77 -26 45 51.2                 ES012673
     K06Q65J  C2006 09 18.62181 22 49 02.64 -27 28 00.2          18.1 V ES012428
     K06Q65J  C2006 09 18.62280 22 49 02.60 -27 28 08.0          18.3 V ES012428
     K06Q65J  C2006 09 18.62381 22 49 02.57 -27 28 15.6          18.2 V ES012428
     K06Q65J  C2006 09 18.62480 22 49 02.57 -27 28 23.4          18.2 V ES012428

Observer details:
428 Reedy Creek.  Observer J. Broughton.  0.51-m f/2.7 reflector + CCD.
673 Table Mountain Observatory, Wrightwood.  Observer J. Young.  0.61-m f/16
    Cassegrain + CCD.
699 Lowell Observatory-LONEOS.  Observer M. E. Van Ness.  0.59-m LONEOS
    Schmidt + CCD.
734 Farpoint Observatory.  Observer D. Tibbets.  Measurer G. Hug.  0.7-m
    reflector + CCD.
844 Los Molinos.  Observer S. Roland.  0.46-m f/2.8 reflector + CCD.
854 Sabino Canyon Observatory, Tucson.  Observer J. E. McGaha.  0.36-m f/10.0
    Schmidt-Cassegrain + CCD.

Orbital elements:
2006 QJ65                                                Earth MOID = 0.0474 AU
Epoch 2006 Sept. 22.0 TT = JDT 2454000.5                MPC
M 349.93337              (2000.0)            P               Q
n   0.22600794     Peri.  266.47588     +0.50399387     -0.86276537
a   2.6692357      Node   153.14007     +0.82364481     +0.46603803
e   0.6875812      Incl.    5.12055     +0.25999887     +0.19607261
P   4.36           H   22.1           G   0.15           U   7
Residuals in seconds of arc
060827 291  0.2+  0.0     060917 699  0.1+  0.4+    060918 854  0.5+  0.3-
060827 291  0.1+  0.1-    060917 699  0.1-  0.4+    060918 854  0.2+  0.6-
060827 291  0.2+  0.1+    060918 844  0.9+  0.7-    060918 854  0.2+  0.6-
060828 691  0.0   0.0     060918 844  0.1-  1.2-    060918 673  0.5+  0.6-
060828 691  0.3-  0.4+    060918 844  0.4-  0.8+    060918 673  0.9+  0.1+
060828 691  0.2-  0.4-    060918 844  0.4-  0.9-    060918 673  0.1+  0.6+
060917 699  0.4-  0.5+    060918 844  0.6+  1.6-    060918 673  0.6+  0.1+
060917 699  0.3-  0.4+    060918 844  0.4-  2.2-    060918 428  0.1-  0.9+
060917 699  0.9-  0.8+    060918 734  0.5+  0.1-    060918 428  0.4-  0.8+
060917 699  0.6-  0.5+    060918 734  0.4+  0.1+    060918 428  0.5-  1.0+
060917 699  0.8-  0.2+    060918 734  0.8+  0.2+    060918 428  0.2-  0.9+

Ephemeris:
2006 QJ65                a,e,i = 2.67, 0.69, 5                   q = 0.8339
Date    TT    R. A. (2000) Decl.     Delta      r     Elong.  Phase     V
2006 09 12    22 49.16   -17 25.7    0.161    1.163   164.9    13.0    19.2
2006 09 14    22 49.04   -19 44.0    0.144    1.144   161.4    16.3    19.1
2006 09 16    22 48.98   -22 34.7    0.128    1.125   157.4    20.1    18.9
2006 09 18    22 49.04   -26 09.6    0.113    1.107   152.8    24.5    18.7
2006 09 20    22 49.29   -30 46.4    0.0982   1.088   147.4    29.9    18.5
2006 09 22    22 49.88   -36 51.5    0.0845   1.071   140.6    36.5    18.4
2006 09 24    22 51.13   -45 03.1    0.0722   1.053   132.0    45.1    18.2
2006 09 26    22 53.90   -56 09.7    0.0619   1.036   120.7    56.3    18.2
2006 09 28    23 02.26   -70 45.5    0.0548   1.019   106.4    70.7    18.3
2006 09 30    01 31.42   -87 40.3    0.0520   1.003    89.6    87.4    18.8
2006 10 02    10 22.68   -74 01.4    0.0542   0.987    73.2   103.8    19.6

Kyle E. Smalley              (C) Copyright 2006 MPC           M.P.E.C. 2006-S12

Read MPEC 2006-S11 Read MPEC 2006-S13


Our Web policy. Index to the CBAT/MPC/ICQ pages.


Valid HTML 4.01!